Погода в Щелково

Россия / Московская область     55°55′15″N   37°59′29″E
темп.,
°C
ветер,
м/с
пор.,
м/с
влажн.,
%
обл.,
%
осадки,
мм/ч
давл.,
гПа
погр.,
м
15 мая, сб
сб1500:00+13вюв41097100 1.1 1011271
03:00+13юв41299100 2.1 1011349
06:00+14вюв389617 0.7 1009265
09:00+19ю51079100 0.8 1010713
12:00+20ю467398 0.1 10091056
15:00+22ююз58575 1.2 10081658
18:00+20ююз59649 0.4 10081183
21:00+15ю411855 0.7 1009428
16 мая, вс
вс1600:00+14ююз410935 0.1 1010427
03:00+12ю389816 0.1 1011307
06:00+12ююз310932 0.0 1012343
09:00+17ююз58690 0.0 1013864
12:00+20ююз610517 0.0 10131842
15:00+18ююз596831 1.1 1013946
18:00+19юз376548 0.5 1013939
21:00+14зюз22870 0.5 101413
17 мая, пн
пн1700:00+13зюз119280 0.0 101511
03:00+12ююв1194100 0.0 101611
06:00+13юв249081 0.0 1016107
09:00+19юв3464100 0.0 1015507
12:00+23вюв465322 0.0 10141225
15:00+26вюв584753 0.0 10121744
18:00+24ююв486314 0.0 1010887
21:00+19юв4138677 0.0 1010409
18 мая, вт
вт1800:00+17юв4138433 0.0 1010401
03:00+15юв4138953 0.0 1009350
06:00+16юв41279100 0.0 1008389
09:00+20ююв51057100 0.0 1007579
12:00+24ююв71253100 0.0 10071139
15:00+23ююв61172100 0.8 10071247
18:00+19ююв41186100 2.1 1006459
21:00+18ююв6148026 4.4 1006611
19 мая, ср
ср1900:00+15ю3109594 0.4 1007390
03:00+14ю3898100 0.5 1007302
06:00+15ююв2496100 0.0 1006167
09:00+18ю597823 0.1 1005839
12:00+15ююв41189100 1.8 1005796
15:00+18ю6108077 3.8 10041147
18:00+16ююз6108410 1.8 10041023
21:00+12зюз61388100 1.9 1008930